Lid_Strength_Index
4 4 4 5 3 4 5 5 5 8 8 7 7 7 8 9 9 9 8 7 7 6
4 4 4 3 3 4 4 5 5 7 8 8 8 7 7 8 9 8 8 8 7 6
4 3 2 2 3 4 5 6 6 7 8 8 8 8 7 7 8 8 9 9 9 8
5 3 2 2 4 5 6 6 6 6 8 9 9 9 8 7 8 9 9 9 10 9
5 3 4 4 3 5 6 6 6 6 7 9 10 10 9 8 8 10 10 11 10 12
7 5 5 5 3 5 5 6 6 6 7 10 11 11 10 9 9 9 10 10 11 12
9 7 6 5 5 5 5 5 6 6 8 10 12 12 11 10 9 10 10 10 11 12
9 8 7 6 6 6 6 6 6 7 8 10 12 12 12 11 10 11 12 11 11 12
9 8 8 8 7 7 7 8 7 7 8 11 11 12 12 12 11 11 13 13 13 13
10 9 9 9 8 7 8 9 9 9 9 12 13 11 12 12 11 12 13 14 13 14
10 10 9 10 9 9 9 10 11 10 10 11 12 12 12 12 11 12 13 14 14 14
10 10 10 10 11 10 10 10 11 10 11 11 13 12 12 13 12 11 13 14 14 14
10 11 11 11 11 11 11 10 11 11 11 10 12 12 12 13 12 12 12 14 14 13
11 11 11 11 11 11 12 11 12 11 12 12 12 13 12 12 13 14 13 13 14 15